{"data":{"norad_id":48303,"intl_designator":"2021-036AD","name":"STARLINK-2530","alt_names":[],"object_type":"PAYLOAD","status":"ACTIVE","operator":null,"country":"US","launch_date":"2021-04-29","launch_site_code":"AFETR","launch_vehicle":null,"mission":null,"orbit_class":"UNKNOWN","rcs_meters":null,"size_class":null,"mass_kg":null,"dimensions":null,"purposes":["comms"],"wikipedia_slug":null,"has_3d_model":false,"image_url":null,"decayed_at":null,"tle_current":{"epoch":"2026-09-20T01:45:00.844416Z","epoch_age_seconds":70636,"freshness":"FRESH","line1":"1 48303U 21036AD  26263.07292644  .00003421  00000+0  12200-3 0  9990","line2":"2 48303  53.1592 263.8240 0001085  77.0811 283.0311 15.31691218298002","mean_motion":15.31691218,"eccentricity":0.0001085,"inclination_deg":53.1592,"raan_deg":263.824,"arg_perigee_deg":77.0811,"mean_anomaly_deg":283.0311,"bstar":0.000122,"rev_number":29800,"period_min":94.013726988673,"perigee_km":470.02306804137,"apogee_km":471.50928003013,"semimajor_km":6848.9031740357,"source":"CELESTRAK","updated_at":"2026-09-20T09:00:38.932265Z"}}}